Regional Weather Roundup
Issued by NWS Wakefield, VA

Home | Current Version | Previous Version | Graphics & Text | Print | Product List | Glossary On
Versions: 1 2 3 4 5 6 7 8 9 10 11 12 13 14 15 16 17 18 19 20 21 22 23 24 25 26 27 28 29 30 31 32 33 34 35 36 37 38 39 40 41 42 43 44 45 46 47 48 49 50
000
ASUS41 KAKQ 101414
RWRAKQ

REGIONAL WEATHER ROUNDUP
NATIONAL WEATHER SERVICE WAKEFIELD VA
900 AM EST WED FEB 10 2016

Note: "fair" indicates few or no clouds below 12,000 feet with no
significant weather and/or obstructions to visibility. * = Denotes
station may not report precipitation (e.g., rain,snow,etc.),
thunder or fog.

VAZ042-051-052>054-056-101500-
NORTHERN VIRGINIA

CITY           SKY/WX    TMP DP  RH WIND       PRES   REMARKS
WASH NATIONAL  PTSUNNY   33  15  47 W13G26    29.82R WCI  24
DULLES         PTSUNNY   31  14  49 W17       29.80R WCI  19
FORT BELVOIR   FAIR      33  15  47 W12       29.81R WCI  24
QUANTICO       FAIR      33  18  53 NW3       29.84R
FREDERICKSBRG* FAIR      31  23  71 W5        29.83R
STAFFORD*      PTSUNNY   31  17  57 SW5       29.86R
WARRENTON      FAIR      34  20  56 W6        29.81R
CULPEPER*      FAIR      32  14  48 W8        29.83R
MANASSAS*      SUNNY     32  18  55 NW10      29.81R WCI  24
LEESBURG*      CLOUDY    32  21  64 NW17G31   29.80S WCI  21
WINCHESTER     CLOUDY    30  16  55 W15G22    29.79R WCI  19
FRONT ROYAL*   CLOUDY    30  14  51 W8        29.79R
LURAY*         PTSUNNY   28  14  54 W14       29.80R WCI  17
$$

VAZ048-049-060>072-079>083-101500-
CENTRAL AND SOUTH CENTRAL VIRGINIA

CITY           SKY/WX    TMP DP  RH WIND       PRES   REMARKS
RICHMOND       FAIR      30  17  58 W12       29.84R WCI  20
CHESTERFIELD*  FAIR      30   7  37 W10       29.86R WCI  21
PETERSBURG*    FAIR      30  12  47 W7        29.87R
HANOVER        FAIR      31  17  56 W9        29.85R
TAPPAHANNOCK*  FAIR      32  23  70 SW7       29.84R
QUINTON*       FAIR      29  19  65 W6        29.84R
CHARLOTTSVILLE FAIR      31  12  45 CALM      29.81R
GORDONSVILLE*  FAIR      32  13  45 SW8       29.81R
ORANGE*        FAIR      32  16  51 S7        29.83R
LOUISA*        FAIR      32  16  51 W5        29.80S
BUMPASS*       FAIR      30  17  56 SW8       29.82R
FARMVILLE*     FAIR      31  14  48 SW8       29.85R
CREWE*         FAIR      30  15  53 W8        29.85S
FORT PICKETT*  FAIR      29  14  53 W6G16     29.85S
CHASE CITY*    FAIR      28  13  53 W7        29.88R
CLARKSVILLE*   FAIR      30  14  51 W7G16     29.89R
SOUTH HILL*    FAIR      29  15  56 W8G16     29.94R
LAWRENCEVILLE* FAIR      30  15  54 W7        29.87R
EMPORIA*       FAIR      30  16  55 SW12      29.90R WCI  21
$$

VAZ088>098-101500-
SOUTHEAST VIRGINIA

CITY           SKY/WX    TMP DP  RH WIND       PRES   REMARKS
NORFOLK        PTSUNNY   31  16  54 VRB7      29.85R
VIRGINIA BEACH FAIR      41  18  39 W14       29.84R
NORFOLK NAVAL  FAIR      32  17  54 W12       29.87R WCI  23
WEST POINT*    FAIR      30  21  69 W13       29.86R WCI  20
SALUDA*        PTSUNNY   31  25  80 W8        29.83S
NEWPORT NEWS   FAIR      32  18  56 W12       29.86R WCI  23
LANGLEY AFB    MOSUNNY   32  19  57 W12       29.84R WCI  23
FORT EUSTIS    FAIR      32  15  49 W6        29.84R
WILLIAMSBURG*  FAIR      34  21  60 W7        29.86R
HR EXEC AP*    CLOUDY    30  16  55 W8G16     29.88R
FRANKLIN*      FAIR      30  15  52 W10G17    29.89R WCI  21
US460-WAKEFLD  FAIR      32  15  49 W8        29.87R
$$

VAZ020-022-025-037-045-101500-
WEST CENTRAL AND SOUTHWEST VIRGINIA

CITY           SKY/WX    TMP DP  RH WIND       PRES   REMARKS
STAUNTON*      FAIR      31  15  51 W10       29.81R WCI  22
WAYNESBORO*    FAIR      26  10  50 W7        29.79R
HOT SPRINGS VA LGT SNOW  13  13 100 W18G26    29.63R WCI  -4
LYNCHBURG      FAIR      27  12  53 W9G20     29.85R
DANVILLE       FAIR      29  14  53 W12       29.91R WCI  19
SOUTH BOSTON*  FAIR      29  14  53 SW7       29.90R
MARTINSVILLE   CLOUDY    25  12  59 NW6       29.91S
ROANOKE        CLOUDY    25  11  55 NW22G28   29.88R WCI  10
BLACKSBURG     FLURRIES  20  14  76 W8G16     29.85R
DUBLIN*        LGT SNOW  21  14  76 W9        29.85R
MARION*        LGT SNOW  17  12  80 W14       29.85R WCI   3
HILLSVILLE*    FLURRIES  16  10  78 NW15G24   29.79R WCI   1
RICHLANDS*     LGT SNOW  13   7  78 W9        29.84R
WISE*          CLOUDY    14   5  67 SW10      29.88R HAZE    WCI   1
ABINGDON*      CLOUDY    18   7  62 NW10G21   29.91R WCI   6
$$

MDZ021>025-VAZ099-100-101500-
SOUTHERN MARYLAND AND THE DELMARVA PENINSULA

CITY           SKY/WX    TMP DP  RH WIND       PRES   REMARKS
PATUXENT RIVER PTSUNNY   31  23  72 W12       29.81S WCI  22
BAY BRIDGE APT   N/A     32  19  59 NW14      29.79S WCI  22
LEONARDTOWN    PTSUNNY   32  25  74 W7        29.82R
DOVER          LGT SNOW  29  29  99 W13       29.75R FOG     WCI  19
GEORGETOWN     LGT SNOW  30  26  85 W9G20     29.78R FOG
EASTON         CLOUDY    32  21  64 NW16G23   29.82R WCI  21
CAMBRIDGE      MOSUNNY   32  21  64 W12G17    29.79S WCI  23
SALISBURY      CLOUDY    31  25  78 W10       29.79S WCI  22
OCEAN CITY     LGT SNOW  30  26  85 NW12G22   29.78R FOG     WCI  20
WALLOPS ISLAND CLOUDY    33  25  72 W14G21    29.80S WCI  23
ACCOMACK*      FLURRIES  32  23  69 NW15      29.82R WCI  22
$$

NCZ012>017-030>032-101500-
NORTH CENTRAL AND EASTERN NORTH CAROLINA

CITY           SKY/WX    TMP DP  RH WIND       PRES   REMARKS
ROANOKE RAPIDS FAIR      30  18  59 W10G18    29.90R WCI  21
RALEIGH        SUNNY     29  14  53 W8        29.93R
ELIZABETH CITY SUNNY     32  17  54 W14       29.89R WCI  22
AHOSKIE*       SUNNY     30  16  54 CALM      29.90R
EDENTON*       SUNNY     34  19  54 W9G21     29.91R
CURRITUCK*     MOSUNNY   32  18  57 W13G21    29.87S WCI  22
KILL DEVIL HLS SUNNY     34  20  54 W14G24    29.86R WCI  25
MANTEO         SUNNY     33  20  60 NW13G21   29.89R WCI  23
CAPE HATTERAS  SUNNY     35  19  52 NW17G28   29.91R WCI  25
TARBORO*       FAIR      32  18  55 W10       29.94R WCI  24
GOLDSBORO      MOSUNNY   32  14  47 W12G21    29.92R WCI  23
WASHINGTON     MOSUNNY   32  17  52 W7        29.93R
GREENVILLE     MOSUNNY   32  18  55 W9G18     29.95R
NEW BERN       MOSUNNY   33  16  49 W10       29.95R WCI  25
WILMINGTON     SUNNY     36  16  44 W14G22    29.97R
$$

VAZ048-101500-
ELSEWHERE

CITY           SKY/WX    TMP DP  RH WIND       PRES   REMARKS
HARRISBURG PA  PTSUNNY   30  20  66 W14       29.73R WCI  19
BALTIMORE      PTSUNNY   31  17  56 W14G25    29.78R WCI  21
ANNAPOLIS      CLOUDY    33  18  53 W14G23    29.79R WCI  23
ANDREWS AFB    FAIR      32  15  50 NW21      29.78R WCI  20
PHILADELPHIA   LGT SNOW  31  26  82 W15       29.73R VSB 1   WCI  20
HENDERSON NC   SUNNY     29  14  52 W8        29.90R
GREENSBORO     MOSUNNY   28  13  53 W8        29.89R
ROCKY MOUNT    SUNNY     31  16  54 W8        29.93R
$$

VAZ100-101500-
MARINE

STATION/POSITION TIME  TEMP    WIND        PRES    WAVE   SWELL
                       AIR SEA DIR/SP/G            HT/PER HT/PER
                 (UTC) (F)     (DEG/KT/KT) (MB)    (FT/S) (FT/S)
BRANDYWINE LGT   1300   29     300/ 27/ 33 1006.7R
CAPE MAY NJ      1300   31 42  300/ 21/ 25 1006.4R
LEWES DE         1300   30 41  290/ 14/ 18 1007.2R
15NM E FENWICK I 1350   31 43              1007.0R   6/12
OCEAN-CITY-INLET 1300   30 41  310/ 15/ 23 1007.0R
WACHAPREAGUE VA  1300   31 42  270/  3/  5 1009.3R
THOMAS POINT MD  1400   32 38  300/ 14/ 15 1009.4R
GOOSES REEF MD   1400   33 39  310/ 16/ 21 1010.3R   1/ 3
COVE POINT MD    1300   30     310/  6/ 12 1009.6R
SOLOMONS ISLAND  1300   31 40  260/ 10/ 12   N/A
BISHOPS HEAD MD  1300   32 38  290/ 15/ 21 1008.1R
PINEY POINT MD   1300          290/ 12/ 15   N/A
POTOMAC MD       1400   32 40  280/ 14/ 17 1008.7R   2/ 2
CAMBRIDGE MD     1300   32 40  280/  8/ 16 1007.9R
LEWISETTA VA     1300   31 40  260/  8/  9 1009.2R
RAPPAHANNOCK LGT 1300          290/ 12/ 13 1009.9R
STINGRAY PT      1400   32 42  280/ 12/ 17 1010.0R   1/ 2
YORK RVR RNG VA  1300   31     290/ 14/ 16 1009.3R
YORKTOWN VA      1300   31 42  250/ 11/ 15 1010.0R
JAMESTOWN VA     1400   31 43  260/ 10/ 12   N/A
DOMINION TERM VA 1300   31     280/ 12/ 15 1010.5R
KIPTOPEKE VA     1300      42  300/ 15/ 18   N/A
CHES BAY BRIDGE  1300   31 42  240/ 14/ 19 1010.0R
CAPE HENRY VA    1300   30     260/ 10/ 14   N/A
CHESAPEAKE LGHT  1300   32     290/ 22/ 24 1010.5R
WILLOUBY STN VA  1300   31     270/ 13/ 15   N/A
CAPE HENRY BUOY  1328      44                N/A     4/13   2/13
1ST LANDING BUOY 1400      42                N/A     2/ 4
CAPE CHARLES BUO 1326      43                N/A     4/13   3/13
OFFSHORE WE BUOY 1321      46                N/A     5/13   3/13
64NM E OF VA BCH 1350   36 50  290/ 21/ 27 1009.0R   8/13   5/13
DUCK PIER NC     1300   31     290/ 20/ 27 1010.2R
44100 DUCK FRF   1324      47                N/A     6/13   3/13
44056 DUCK FRF   1311      44                N/A     4/14   3/14
OREGON INLET NC  1300   31 44  270/ 17/ 22 1011.1R
HATTERAS NC      1300   34 50  290/ 23/ 31 1011.6R
DIAMOND SHLS NC  1350   38 73  290/ 25/ 33 1012.1R   9/ 6C1F1C2F2C3F3C4F4C5F5C6F6C7F7C8M1C9!


USA.gov is the U.S. government's official web portal to all federal, state and local government web resources and services.